GW5881 Weather Reports


time (UTC)temp
F
wind
direction
speed
knots
gust
knots
rain 1hr
in
rain 24hr
in
rain mn
in
humidity
%
barometer
mb
20260902132903 71 249 4.3 7.0 0.00 0.22 0.01 54 1017.9
20260902132402 72 252 5.2 7.8 0.00 0.22 0.01 51 1017.9
20260902131903 71 222 5.2 6.1 0.00 0.22 0.01 55 1017.9
20260902131402 70 247 5.2 7.0 0.00 0.22 0.01 54 1018.3
20260902130903 71 262 4.3 6.1 0.00 0.22 0.01 53 1017.9
20260902130403 71 236 5.2 7.0 0.00 0.22 0.01 54 1018.3
20260902125902 71 225 8.7 8.7 0.00 0.22 0.01 52 1018.3
20260902125305 71 255 1.7 2.6 0.00 0.22 0.01 53 1018.3
20260902124803 72 226 4.3 7.0 0.00 0.22 0.01 52 1018.3
20260902124303 71 178 7.0 12.2 0.00 0.22 0.01 53 1018.3
20260902123802 71 203 8.7 9.6 0.00 0.22 0.01 54 1018.6
20260902123303 70 162 1.7 5.2 0.00 0.22 0.01 55 1018.6
20260902122803 71 199 3.5 7.8 0.00 0.22 0.01 54 1018.6
20260902122202 71 216 7.0 9.6 0.00 0.22 0.01 52 1018.6
20260902121602 71 192 4.3 7.0 0.00 0.22 0.01 53 1018.6
20260902121004 71 277 0.9 5.2 0.00 0.22 0.01 55 1018.6
20260902120505 70 246 4.3 7.0 0.00 0.22 0.01 55 1018.6
20260902120003 69 257 2.6 6.1 0.00 0.22 0.01 58 1019.0
20260902115403 69 245 5.2 6.1 0.00 0.22 0.01 57 1019.0
20260902114902 69 259 7.8 8.7 0.00 0.22 0.01 57 1019.0
20260902114403 69 234 2.6 4.3 0.00 0.22 0.01 57 1019.0
20260902113803 69 254 2.6 4.3 0.00 0.22 0.01 56 1019.0
20260902113202 69 219 1.7 5.2 0.00 0.22 0.01 58 1019.0
20260902112703 70 181 4.3 6.1 0.00 0.22 0.01 55 1019.0
20260902112203 69 168 1.7 4.3 0.00 0.22 0.01 55 1019.0
20260902111702 68 224 2.6 2.6 0.00 0.22 0.01 57 1019.3
20260902111203 69 244 4.3 7.0 0.00 0.22 0.01 56 1019.0
20260902110603 69 248 5.2 6.1 0.00 0.22 0.01 56 1019.3
20260902105603 68 225 4.3 7.8 0.00 0.22 0.01 54 1019.3
20260902105103 68 242 4.3 7.0 0.00 0.22 0.01 56 1019.6
20260902104603 68 236 4.3 5.2 0.00 0.22 0.01 59 1019.3
20260902104005 68 259 6.1 7.0 0.00 0.22 0.01 59 1019.6
20260902103403 68 257 5.2 7.0 0.00 0.22 0.01 57 1019.6
20260902102902 68 255 6.1 8.7 0.00 0.22 0.01 56 1019.6
20260902102403 67 237 6.1 7.8 0.00 0.22 0.01 60 1019.6
20260902101902 67 240 7.0 7.8 0.00 0.22 0.01 61 1019.6
20260902101303 67 228 4.3 7.0 0.00 0.22 0.01 59 1019.6
20260902100803 67 214 4.3 5.2 0.00 0.22 0.01 61 1019.6
20260902100302 67 233 6.1 7.0 0.00 0.22 0.01 62 1019.6
20260902095803 67 247 6.1 8.7 0.00 0.22 0.01 61 1019.6
20260902095306 67 237 7.0 7.8 0.00 0.22 0.01 62 1019.6
20260902094802 67 252 4.3 6.1 0.00 0.22 0.01 65 1019.6
20260902094203 67 232 5.2 6.1 0.00 0.22 0.01 65 1019.6
20260902093704 67 234 3.5 8.7 0.00 0.22 0.01 63 1019.6
20260902093203 68 244 6.1 8.7 0.00 0.22 0.01 62 1019.6
20260902092603 67 226 1.7 5.2 0.00 0.22 0.01 69 1019.6
20260902092103 67 252 1.7 6.1 0.00 0.22 0.01 70 1019.6
20260902091603 66 208 5.2 8.7 0.00 0.22 0.01 71 1019.6
20260902091102 66 256 3.5 7.0 0.00 0.22 0.01 73 1019.6
20260902090603 66 203 7.0 8.7 0.00 0.22 0.01 72 1019.6
20260902090005 65 193 5.2 7.0 0.00 0.22 0.01 73 1019.6
20260902085504 65 222 7.0 7.8 0.00 0.22 0.01 75 1020.0
20260902084902 64 218 6.1 7.8 0.00 0.22 0.01 76 1020.0
20260902084402 64 194 4.3 6.1 0.00 0.22 0.01 75 1020.0
20260902083803 63 208 3.5 7.0 0.00 0.22 0.01 76 1020.0
20260902083303 63 221 5.2 7.0 0.00 0.22 0.01 76 1020.0
20260902082703 63 170 2.6 6.1 0.00 0.22 0.01 78 1020.0
20260902082203 63 200 3.5 6.1 0.00 0.22 0.01 77 1020.0
20260902081703 62 205 3.5 5.2 0.00 0.22 0.01 77 1020.0
20260902081103 62 184 4.3 5.2 0.00 0.22 0.01 80 1020.0
20260902080603 61 161 2.6 5.2 0.00 0.22 0.01 83 1020.0
20260902075403 61 195 0.9 2.6 0.00 0.22 0.01 86 1020.0
20260902074902 60 183 1.7 2.6 0.00 0.22 0.01 85 1020.0
20260902074402 60 169 2.6 2.6 0.00 0.22 0.01 86 1019.6
20260902073803 60 158 1.7 1.7 0.00 0.22 0.01 86 1020.0
20260902073302 60 153 1.7 2.6 0.00 0.22 0.01 87 1019.6
20260902072803 59 164 1.7 2.6 0.00 0.22 0.01 87 1020.0
20260902072308 60 185 0.9 1.7 0.00 0.22 0.01 87 1020.0
20260902071803 60 198 2.6 4.3 0.00 0.22 0.01 87 1020.0
20260902071303 60 175 2.6 4.3 0.00 0.22 0.01 88 1020.0
20260902070803 59 165 2.6 2.6 0.00 0.22 0.01 90 1019.6
20260902070303 59 182 1.7 1.7 0.00 0.22 0.01 91 1020.0
20260902065803 58 194 2.6 4.3 0.00 0.22 0.01 91 1020.0
20260902065203 59 209 1.7 2.6 0.00 0.22 0.01 92 1020.0
20260902064704 58 182 2.6 2.6 0.00 0.22 0.01 93 1020.0
20260902064202 58 170 1.7 4.3 0.00 0.22 0.01 93 1020.0
20260902063603 57 155 2.6 4.3 0.00 0.22 0.01 94 1020.0
20260902063102 57 163 2.6 2.6 0.00 0.22 0.01 95 1020.0
20260902062602 56 208 1.7 2.6 0.00 0.22 0.01 95 1020.0
20260902062102 56 171 1.7 2.6 0.00 0.22 0.01 95 1020.0
20260902061102 55 177 2.6 4.3 0.00 0.22 0.01 95 1020.0
20260902060603 55 154 3.5 4.3 0.00 0.22 0.01 96 1020.0
20260902055603 54 146 1.7 2.6 0.00 0.22 0.01 96 1020.3
20260902055003 54 147 1.7 2.6 0.00 0.22 0.01 96 1020.0
20260902054502 54 224 1.7 1.7 0.00 0.22 0.01 96 1020.3
20260902053903 54 226 0.0 0.9 0.00 0.22 0.01 95 1020.3
20260902053402 54 226 0.0 0.0 0.00 0.22 0.01 96 1020.0
20260902052902 54 226 0.0 0.0 0.00 0.22 0.01 96 1020.3
20260902052306 54 226 0.0 0.0 0.00 0.22 0.01 96 1020.0
20260902051803 53 226 0.0 0.0 0.00 0.22 0.01 96 1020.0
20260902051302 53 226 0.0 0.0 0.00 0.22 0.01 95 1020.0
20260902050802 53 226 0.0 0.0 0.00 0.22 0.01 95 1020.3
20260902050303 53 226 0.0 0.0 0.00 0.22 0.01 95 1020.0
20260902045803 53 226 0.0 0.0 0.00 0.22 0.01 95 1020.0
20260902045306 53 226 0.0 0.0 0.00 0.22 0.01 96 1020.0
20260902044703 53 226 0.0 0.0 0.00 0.22 0.01 95 1020.0
20260902044202 53 226 0.0 0.0 0.00 0.22 0.01 95 1020.0
20260902043703 54 226 0.0 0.0 0.00 0.22 0.01 95 1020.0
20260902043203 53 226 0.9 0.9 0.00 0.22 0.01 95 1020.3
20260902042704 53 226 0.9 1.7 0.00 0.22 0.01 95 1020.3
20260902042202 53 227 1.7 1.7 0.00 0.22 0.01 95 1020.3
20260902041702 53 227 1.7 1.7 0.00 0.22 0.01 95 1020.3
20260902041202 53 227 1.7 1.7 0.00 0.22 0.01 95 1020.7
20260902040702 53 227 1.7 1.7 0.00 0.22 0.01 95 1020.3
20260902040103 53 226 2.6 2.6 0.00 0.22 0.01 95 1020.3
20260902035603 53 223 2.6 2.6 0.00 0.22 0.01 95 1020.3
20260902035103 53 244 1.7 2.6 0.00 0.22 0.01 95 1020.3
20260902034003 53 254 1.7 2.6 0.00 0.22 0.01 95 1020.3
20260902033403 53 256 2.6 4.3 0.00 0.22 0.01 95 1020.3
20260902032902 52 253 2.6 2.6 0.00 0.22 0.01 95 1020.3
20260902032402 52 215 0.0 0.0 0.00 0.22 0.01 94 1020.0
20260902031903 52 215 0.9 0.9 0.00 0.22 0.01 95 1019.6
20260902031402 52 215 0.0 0.0 0.00 0.22 0.01 94 1019.6
20260902030902 53 214 0.0 0.0 0.00 0.22 0.01 94 1020.0
20260902030403 53 214 0.9 1.7 0.00 0.22 0.01 94 1020.0
20260902025903 53 214 1.7 1.7 0.00 0.22 0.01 94 1020.0
20260902025306 53 214 0.9 1.7 0.00 0.22 0.01 94 1019.6
20260902024802 54 214 0.9 1.7 0.00 0.22 0.01 94 1019.6
20260902024302 54 214 0.9 0.9 0.00 0.22 0.01 94 1019.6
20260902023802 53 214 0.9 1.7 0.00 0.22 0.01 94 1019.6
20260902023202 54 214 0.9 1.7 0.01 0.22 0.01 94 1019.6
20260902022703 54 222 0.9 1.7 0.01 0.22 0.01 94 1019.6
20260902022104 54 223 0.9 1.7 0.01 0.22 0.01 94 1019.6
20260902021603 54 225 0.0 0.9 0.01 0.22 0.01 93 1019.6
20260902021103 54 225 1.7 1.7 0.01 0.22 0.01 93 1020.0
20260902020603 54 226 0.0 0.0 0.01 0.22 0.01 93 1019.6
20260902020103 54 226 0.0 0.0 0.01 0.22 0.01 93 1019.6
20260902015504 54 226 0.0 0.0 0.01 0.22 0.01 92 1019.6
20260902015003 55 225 0.0 0.9 0.01 0.22 0.01 92 1020.0
20260902014403 55 225 0.9 1.7 0.01 0.22 0.01 93 1019.6
20260902013903 55 228 1.7 1.7 0.01 0.22 0.01 92 1020.0
20260902013302 55 228 2.6 2.6 0.00 0.21 0.00 92 1020.3
20260902012803 55 232 2.6 2.6 0.00 0.21 0.00 91 1020.0
20260902012308 55 246 1.7 1.7 0.00 0.21 0.00 91 1019.6
20260902011703 56 249 2.6 2.6 0.00 0.21 0.00 91 1019.6
20260902011202 56 248 1.7 2.6 0.00 0.21 0.00 90 1019.6
20260902010603 57 256 2.6 2.6 0.00 0.21 0.00 90 1019.6
20260902005603 57 267 2.6 2.6 0.00 0.21 0.00 90 1019.6
20260902005103 57 274 2.6 4.3 0.00 0.21 0.00 90 1019.6
20260902004602 57 281 3.5 5.2 0.00 0.21 0.00 90 1019.6
20260902004102 57 279 2.6 4.3 0.00 0.21 0.00 90 1019.6
20260902003603 57 271 2.6 4.3 0.00 0.21 0.00 90 1020.0
20260902003102 57 264 2.6 2.6 0.00 0.21 0.00 89 1020.0
20260902002502 57 258 3.5 5.2 0.00 0.21 0.00 89 1019.6
20260902002003 58 256 3.5 4.3 0.00 0.21 0.00 89 1019.6
20260902001504 57 264 4.3 5.2 0.00 0.21 0.00 90 1020.0
20260902001004 57 243 2.6 2.6 0.00 0.21 0.00 90 1019.6
20260902000403 57 232 2.6 5.2 0.00 0.21 0.00 90 1019.6
20260901235902 57 239 3.5 5.2 0.00 0.21 0.00 91 1019.6
20260901235307 57 242 2.6 2.6 0.00 0.21 0.00 90 1019.6
20260901234703 57 250 2.6 4.3 0.00 0.21 0.00 91 1019.6
20260901234202 57 244 2.6 2.6 0.00 0.21 0.00 90 1019.3
20260901233704 57 244 0.9 2.6 0.00 0.21 0.00 90 1019.3
20260901233203 57 240 1.7 2.6 0.00 0.21 0.00 89 1019.3
20260901232702 57 240 2.6 2.6 0.00 0.21 0.00 89 1019.3
20260901232103 57 235 2.6 2.6 0.00 0.21 0.00 88 1019.6
20260901231402 58 242 1.7 2.6 0.00 0.21 0.00 88 1019.6
20260901230902 58 254 1.7 4.3 0.00 0.21 0.00 87 1019.3
20260901230402 59 249 2.6 4.3 0.00 0.21 0.00 86 1019.3
20260901225903 59 256 3.5 4.3 0.00 0.21 0.00 86 1019.6
20260901225306 59 269 3.5 5.2 0.00 0.21 0.00 86 1019.6
20260901224803 60 268 3.5 4.3 0.00 0.21 0.00 85 1019.3
20260901224203 60 261 4.3 6.1 0.00 0.21 0.00 85 1019.3
20260901223702 60 269 2.6 4.3 0.00 0.21 0.00 85 1019.3
20260901223202 60 265 2.6 2.6 0.00 0.21 0.00 85 1019.3
20260901222703 59 253 2.6 5.2 0.00 0.21 0.00 86 1019.6
20260901222203 60 252 2.6 5.2 0.00 0.21 0.00 86 1019.3
20260901221603 60 241 3.5 4.3 0.00 0.21 0.00 86 1019.6
20260901221103 60 255 3.5 5.2 0.00 0.21 0.00 87 1019.3
20260901220603 60 262 3.5 4.3 0.00 0.21 0.00 87 1019.6
20260901215603 59 253 3.5 5.2 0.00 0.21 0.21 89 1019.3
20260901215004 59 245 3.5 5.2 0.00 0.21 0.21 90 1019.6
20260901214504 59 266 0.9 6.1 0.00 0.21 0.21 89 1019.3
20260901214004 60 234 2.6 4.3 0.00 0.21 0.21 90 1019.3
20260901213403 60 234 3.5 4.3 0.00 0.21 0.21 90 1019.3
20260901212902 59 221 2.6 4.3 0.00 0.21 0.21 89 1019.0
20260901212306 60 234 1.7 1.7 0.00 0.21 0.21 88 1019.0
20260901211803 60 249 2.6 2.6 0.00 0.21 0.21 88 1019.0
20260901211203 60 255 2.6 2.6 0.00 0.21 0.21 87 1019.3
20260901210703 61 239 2.6 4.3 0.00 0.21 0.21 87 1019.0
20260901210202 60 231 3.5 4.3 0.00 0.21 0.21 86 1019.3
20260901205702 61 232 2.6 4.3 0.00 0.21 0.21 85 1019.3
20260901205203 61 237 2.6 2.6 0.00 0.21 0.21 84 1019.3
20260901204603 62 239 2.6 4.3 0.00 0.21 0.21 81 1019.3
20260901204005 62 264 4.3 5.2 0.00 0.21 0.21 80 1019.0
20260901203504 62 271 3.5 5.2 0.00 0.21 0.21 80 1019.0
20260901202904 62 271 5.2 7.0 0.00 0.21 0.21 80 1019.3
20260901202403 62 259 4.3 6.1 0.00 0.21 0.21 80 1019.3
20260901201903 62 261 4.3 6.1 0.00 0.21 0.21 80 1019.0
20260901201403 62 259 4.3 5.2 0.00 0.21 0.21 81 1019.0
20260901200803 62 262 4.3 5.2 0.00 0.21 0.21 83 1019.0
20260901200303 62 258 3.5 4.3 0.00 0.21 0.21 82 1019.0
20260901195803 62 255 3.5 5.2 0.00 0.21 0.21 82 1019.0
20260901195306 62 262 4.3 6.1 0.00 0.21 0.21 81 1018.6
20260901194804 63 256 5.2 6.1 0.00 0.21 0.21 81 1019.0
20260901194304 63 260 4.3 5.2 0.00 0.21 0.21 80 1019.0
20260901193804 63 259 4.3 5.2 0.00 0.21 0.21 82 1019.0
20260901193304 63 240 3.5 5.2 0.00 0.21 0.21 82 1019.0
20260901192803 63 248 3.5 4.3 0.00 0.21 0.21 81 1019.0
20260901192306 63 254 4.3 5.2 0.00 0.21 0.21 81 1019.0
20260901191803 63 253 4.3 5.2 0.00 0.21 0.21 80 1019.0
20260901191303 63 276 4.3 6.1 0.00 0.21 0.21 80 1018.6
20260901190802 63 267 4.3 6.1 0.00 0.21 0.21 81 1018.6
20260901190303 63 255 3.5 5.2 0.00 0.21 0.21 84 1018.6
20260901185705 62 266 5.2 6.1 0.00 0.21 0.21 86 1018.6
20260901184702 62 254 2.6 2.6 0.00 0.21 0.21 88 1018.6
20260901184203 62 237 3.5 4.3 0.00 0.21 0.21 88 1018.6
20260901183703 62 235 2.6 6.1 0.00 0.21 0.21 88 1018.3
20260901183102 62 258 3.5 5.2 0.00 0.21 0.21 88 1018.3
20260901182504 62 246 4.3 7.0 0.00 0.21 0.21 89 1018.3
20260901181502 61 255 1.7 2.6 0.00 0.21 0.21 89 1018.3
20260901181003 62 238 1.7 2.6 0.03 0.21 0.21 89 1018.3
20260901180403 62 231 2.6 2.6 0.06 0.21 0.21 88 1018.6
20260901175803 62 239 3.5 5.2 0.08 0.26 0.21 87 1017.9
20260901175305 62 248 2.6 4.3 0.16 0.26 0.21 86 1017.9
20260901174705 62 249 4.3 5.2 0.18 0.26 0.21 85 1017.9
20260901174204 62 256 6.1 7.0 0.21 0.26 0.21 84 1017.9
20260901173603 61 264 5.2 6.1 0.21 0.26 0.21 87 1018.3
20260901173102 61 224 0.9 1.7 0.21 0.26 0.21 87 1018.3
20260901172603 61 206 0.0 0.0 0.21 0.26 0.21 87 1017.9
20260901172102 61 205 0.9 2.6 0.21 0.26 0.21 86 1017.9
20260901171504 61 226 5.2 6.1 0.21 0.26 0.21 86 1017.9
20260901171004 62 269 5.2 6.1 0.17 0.22 0.17 86 1017.9
20260901170004 63 253 7.0 9.6 0.10 0.15 0.10 84 1018.6
20260901165502 64 249 10.4 15.6 0.05 0.10 0.05 80 1017.9
20260901165003 71 262 13.9 21.7 0.00 0.05 0.00 65 1017.9
20260901164403 71 299 11.3 13.0 0.00 0.05 0.00 54 1017.3
20260901163903 72 276 9.6 13.0 0.00 0.05 0.00 54 1017.3
20260901163403 72 288 7.8 11.3 0.00 0.05 0.00 53 1017.3
20260901162903 72 273 5.2 7.0 0.00 0.05 0.00 53 1017.3
20260901162403 72 281 6.1 7.0 0.00 0.05 0.00 52 1017.3
20260901161803 72 269 7.8 8.7 0.00 0.05 0.00 52 1017.3
20260901161303 73 280 6.1 8.7 0.00 0.05 0.00 52 1017.3
20260901160803 73 276 8.7 14.8 0.00 0.05 0.00 49 1016.9
20260901160303 74 273 6.1 7.8 0.00 0.05 0.00 49 1016.9
20260901155704 73 262 5.2 9.6 0.00 0.05 0.00 50 1016.9
20260901155203 73 261 8.7 11.3 0.00 0.05 0.00 49 1016.9
20260901154703 73 277 11.3 12.2 0.00 0.05 0.00 48 1016.9
20260901154202 74 266 10.4 15.6 0.00 0.05 0.00 48 1016.9
20260901153604 74 272 6.1 8.7 0.00 0.05 0.00 49 1016.9
20260901153104 74 283 6.1 9.6 0.00 0.05 0.00 48 1016.9
20260901152603 73 268 7.8 8.7 0.00 0.05 0.00 48 1016.6
20260901152103 73 280 8.7 13.0 0.00 0.05 0.00 49 1016.9
20260901151603 74 268 7.8 9.6 0.00 0.05 0.00 50 1016.9
20260901150903 74 298 5.2 8.7 0.00 0.05 0.00 49 1016.9
20260901150404 73 294 9.6 12.2 0.00 0.05 0.00 50 1016.9
20260901145903 75 278 9.6 13.9 0.00 0.15 0.00 48 1016.6
20260901145306 74 288 4.3 8.7 0.00 0.15 0.00 49 1016.9
20260901144803 73 292 6.1 11.3 0.00 0.15 0.00 48 1016.9
20260901144303 74 273 7.8 11.3 0.00 0.15 0.00 48 1016.9
20260901143802 74 274 9.6 11.3 0.00 0.15 0.00 47 1016.9
20260901143203 74 280 12.2 13.9 0.00 0.15 0.00 48 1016.6
20260901142604 75 268 7.0 12.2 0.00 0.15 0.00 48 1016.6
20260901142103 74 245 9.6 13.9 0.00 0.15 0.00 47 1016.9
20260901141007 74 261 13.9 17.4 0.00 0.15 0.00 47 1016.9
20260901140506 74 269 9.6 13.9 0.00 0.15 0.00 45 1016.9
20260901135003 74 256 7.8 12.2 0.00 0.15 0.00 47 1017.3
20260901134503 74 251 7.0 12.2 0.00 0.15 0.00 48 1016.9
20260901133902 73 264 12.2 15.6 0.00 0.15 0.00 48 1016.9
20260901133402 75 253 10.4 18.2 0.00 0.15 0.00 49 1016.9